Address 0x3f8b74c6d9a60f785fe250d8a5b6a9f00c7a0cce 3

Txn Hash Method
Block
From
To
Value [Txn Fee]
0x37b56897f26dcb3cd2740cae13a9511fde699df5f4ec2c8fedb31b605546bf12_pause Ico67360402021-03-02 10:27:47332 days 17 hrs ago0x3f8b74c6d9a60f785fe250d8a5b6a9f00c7a0cceOUT 0xc37bdf7c666ee23f3caf6c274d8d263764764a6b0 BNB0.0004627
0xf1f95296733d8e86ca786c0595abf0ef72ef16b8d9d2404385d54c6ad81ada9cChange Owner67357412021-03-02 10:12:50332 days 17 hrs ago0x3f8b74c6d9a60f785fe250d8a5b6a9f00c7a0cceOUT 0xc37bdf7c666ee23f3caf6c274d8d263764764a6b0 BNB0.0006162
0xbcf606165c4537402c08f9eee35c11bc56aa63fd5ecf7e5e9f0fc489ae684d5aTransfer67357182021-03-02 10:11:41332 days 17 hrs ago0x3f8b74c6d9a60f785fe250d8a5b6a9f00c7a0cceOUT 0xc37bdf7c666ee23f3caf6c274d8d263764764a6b0 BNB0.004558928
0xd2bd16123dfd4ae695b92991defd03e67062e647fc36dade0b9687f64d4cdbfcIco Rate67356072021-03-02 10:06:08332 days 17 hrs ago0x3f8b74c6d9a60f785fe250d8a5b6a9f00c7a0cceOUT 0xc37bdf7c666ee23f3caf6c274d8d263764764a6b0 BNB0.0008479
0x41f8ff510ef35567ee06b5a5d334d28e8c988eb7f40941b67290da2b225764370x60c0604067354612021-03-02 9:58:50332 days 17 hrs ago0x3f8b74c6d9a60f785fe250d8a5b6a9f00c7a0cceOUT Create: GamixToken0 BNB0.02289484
0xf48fe46a96172a5c3c72f3a67dba488fc8c5d8e6e5623662ed363dd0244378d30x60c0604067351712021-03-02 9:44:20332 days 17 hrs ago0x3f8b74c6d9a60f785fe250d8a5b6a9f00c7a0cceOUT Contract Creation0 BNB0.02289484
0xa8186f02fb33fd90cc71f220458ea4b6e3f3a7ed0310b1f43d7001515e5a29f3Ico Rate67350102021-03-02 9:36:17332 days 18 hrs ago0x3f8b74c6d9a60f785fe250d8a5b6a9f00c7a0cceOUT 0x87feb8296c14052e50381202a13ad63ed2b35bdc0 BNB0.0008479
0x7510d913647faf38abc9494f80b907f8a5fdf754b96001b7926b175d6f9130a90x60c0604067349362021-03-02 9:32:35332 days 18 hrs ago0x3f8b74c6d9a60f785fe250d8a5b6a9f00c7a0cceOUT Contract Creation0 BNB0.02281282
0xb2f91aeb78f11e71722d68774d4e30897df1b9d7bc95df715daec36bb9114fa7Ico Rate67264602021-03-02 2:28:47333 days 1 hr ago0x3f8b74c6d9a60f785fe250d8a5b6a9f00c7a0cceOUT 0x02f6fdd2325a0feb886a096a1b8293f409894b680 BNB0.00084646
0x6247d81eef0bb7c5d02b697f4767a10ed8f3c54ee28f473b7a482a8dca02e8870x60c0604067263992021-03-02 2:25:44333 days 1 hr ago0x3f8b74c6d9a60f785fe250d8a5b6a9f00c7a0cceOUT Contract Creation0 BNB0.02225514
0x08e192b826f0027ff43cb2b2dfa9bc14a2e20cc19202aa4c71697716395475bbTransfer67257552021-03-02 1:53:32333 days 1 hr ago0x3f8b74c6d9a60f785fe250d8a5b6a9f00c7a0cceOUT0xf7c4161b6058874bdd7e211c1bce15893cebe4ad1 BNB0.0021
0x8b04b0f4983c72ae74aed4e1335f0b4498c9c62b8fdf2668d1ef32f32dca10fdIco Price67257122021-03-02 1:51:23333 days 1 hr ago0x3f8b74c6d9a60f785fe250d8a5b6a9f00c7a0cceOUT 0x7663f2ff9f15b59005036afd9810672599fe92b40 BNB0.00084722
0x7849a6386334ddc0d03d4b11cb690f67b76776b1ae8ab539ef3595c7bc2cc7460x60c0604067256122021-03-02 1:46:23333 days 1 hr ago0x3f8b74c6d9a60f785fe250d8a5b6a9f00c7a0cceOUT Contract Creation0 BNB0.02247908
0xddc7ee697b9f532876d76b987721c85c188d3ab4d970f86547d805bd2e91cd12Ico Price67250362021-03-02 1:17:35333 days 2 hrs ago0x3f8b74c6d9a60f785fe250d8a5b6a9f00c7a0cceOUT 0x3c959c6108f125955d0b2848c7045edc95f369830 BNB0.00084722
0x0bcae9ae3756dc537002072cfd4b33921f1129ee02791d8f9ef18739164c0b260x60c0604067249722021-03-02 1:14:23333 days 2 hrs ago0x3f8b74c6d9a60f785fe250d8a5b6a9f00c7a0cceOUT Contract Creation0 BNB0.02228934
0x12b92076274c4b417cdb5cc02a4e18904c52008893e88387450cf0bd9fdceaa6End Sale67245082021-03-02 0:51:11333 days 2 hrs ago0x3f8b74c6d9a60f785fe250d8a5b6a9f00c7a0cceOUT 0xd8ad8880b056502eb41ea142e1ce1fc6f1a3b95b0 BNB0.0008887
0xbf4f032d1b51b2c2ac8b0e008b1e4e17f55eea25e2ec7c62a236375ddaeb95c3Transfer67244442021-03-02 0:47:59333 days 2 hrs ago0x3f8b74c6d9a60f785fe250d8a5b6a9f00c7a0cceOUT0xf7c4161b6058874bdd7e211c1bce15893cebe4ad0.1 BNB0.003192
0x83e64841d654e8f80c30cdd73e6c40f037d5ec31ca9594ecbbe662995079b652Sale Price67244362021-03-02 0:47:35333 days 2 hrs ago0x3f8b74c6d9a60f785fe250d8a5b6a9f00c7a0cceOUT 0xd8ad8880b056502eb41ea142e1ce1fc6f1a3b95b0 BNB0.00084808
0x8d697cfda25379403458fe6d09e4a669cd2ee8530e86ca267596921711e2849a0x60c0604067243992021-03-02 0:45:44333 days 2 hrs ago0x3f8b74c6d9a60f785fe250d8a5b6a9f00c7a0cceOUT Contract Creation0 BNB0.02244932
0x86f0e25b004bf8b43067cfc1a52e3e2ca0e42a0ca026c2f870a8c2698800c7c9Transfer67240942021-03-02 0:30:29333 days 3 hrs ago0x3f8b74c6d9a60f785fe250d8a5b6a9f00c7a0cceOUT0xf7c4161b6058874bdd7e211c1bce15893cebe4ad0.1 BNB0.002268
0xcc4bc82ef6e8501a8d666d61986dc56d48db3be74862aa86c85d810430d43782Sale Price67240362021-03-02 0:27:35333 days 3 hrs ago0x3f8b74c6d9a60f785fe250d8a5b6a9f00c7a0cceOUT 0x50c85e14d7160d72531753232c86ccb4d91ab8140 BNB0.00084852
0x653dc5bda38b6c9525cc4096a51e91a1f8cac1fd2d95bbb8a220994b25aba7c30x60c0604067239582021-03-02 0:23:41333 days 3 hrs ago0x3f8b74c6d9a60f785fe250d8a5b6a9f00c7a0cceOUT Contract Creation0 BNB0.02358868
0x7ec7afc9451dd72590778279e9e2af190014089b4b38d50ed0f67136792c08a7Transfer67231992021-03-01 23:45:32333 days 3 hrs ago0x3f8b74c6d9a60f785fe250d8a5b6a9f00c7a0cceOUT 0xb9f41d7221cb6bb695d6906f5f4b2eead41c75560 BNB0.005032457
0x82084b9d1d08df1f8d4f92176026eaa80caebe3f4c73abd3823ae26d3718d3b00x60c0604067230902021-03-01 23:40:05333 days 3 hrs ago0x3f8b74c6d9a60f785fe250d8a5b6a9f00c7a0cceOUT Contract Creation0 BNB0.02358868
0xb3339e1b2c01df7863c7168303bf03286f4401dd8f21d8ab0e72a3d9639614760x60c0604067229292021-03-01 23:32:02333 days 4 hrs ago0x3f8b74c6d9a60f785fe250d8a5b6a9f00c7a0cceOUT Contract Creation0 BNB0.02322214
[ Download CSV Export 
Latest 1 internal transaction
Parent Txn Hash Block From To Value
0x12b92076274c4b417cdb5cc02a4e18904c52008893e88387450cf0bd9fdceaa667245082021-03-02 0:51:11333 days 2 hrs ago 0xd8ad8880b056502eb41ea142e1ce1fc6f1a3b95b0x3f8b74c6d9a60f785fe250d8a5b6a9f00c7a0cce0.01 BNB
[ Download CSV Export 
Loading

Contract Name:
0 BNB

Compiler Version
0

Optimization Enabled:
0 BNB

Other Settings:
-NA-
Block Transaction Gas Used Reward
Age Block Fee Address BC Fee Address Voting Power Jailed Incoming
Block Uncle Number Difficulty Gas Used Reward
Loading